Weather History for Madison, WI

Change the Weather History Date:

Sunday, January 6, 2013

  Actual Average Record
Temperature  
Mean Temperature 26 °F 19 °F  
Max Temperature 35 °F 26 °F 58 °F (1880)
Min Temperature 17 °F 11 °F -24 °F (1912)
Degree Days  
Heating Degree Days 39 46  
Month to date heating degree days 279 276  
Since 1 July heating degree days 2874 3155  
Cooling Degree Days 0 0  
Month to date cooling degree days 0 0  
Year to date cooling degree days 0 0  
Moisture  
Dew Point 18 °F    
Average Humidity 77    
Maximum Humidity 84    
Minimum Humidity 69    
Precipitation  
Precipitation T in 0.04 in 1.30 in (1885)
Month to date precipitation T 0.25  
Year to date precipitation T 0.25  
Snow  
Snow T in 0.40 in 11.00 in (1962)
Month to date snowfall T 2.4  
Since 1 July snowfall 23.5 20.0  
Snow Depth 9.00 in    
Sea Level Pressure  
Sea Level Pressure 30.10 in    
Wind  
Wind Speed 6 mph (WNW)    
Max Wind Speed 15 mph    
Max Gust Speed 21 mph    
Visibility 8 miles    
Events Snow    
T = Trace of Precipitation, MM = Missing Value Source: NWS Daily Summary

Daily Weather History Graph

Daily Weather History Graph

Search for Another Location

Airport:

Trip Planner

Search our weather history database for the weather conditions in past years. The results will help you decide how hot, cold, wet, or windy it might be!

Date:

Astronomy

Jan. 06, 2013 Rise Set
Actual Time 7:29 AM CST 4:38 PM CST
Civil Twilight 6:56 AM CST 5:10 PM CST
Nautical Twilight 6:21 AM CST 5:45 PM CST
Astronomical Twilight 5:46 AM CST 6:20 PM CST
Moon 1:39 AM CST (1/6) 12:08 PM CST (1/6)
Length of Visible Light 10h 13m
Length of Day
9h 09m
Waning Crescent, 33% of the Moon is Illuminated
Jan 6
Waning Crescent
Jan 11
New
Jan 18
First Quarter
Jan 26
Full
Feb 3
Last Quarter

Hourly Weather History & Observations

Time (CST) Temp. Windchill Dew Point Humidity Pressure Visibility Wind Dir Wind Speed Gust Speed Precip Events Conditions
12:18 AM 35.6 °F 30.7 °F 28.4 °F 75% 29.86 in 10.0 mi Variable 5.8 mph - N/A   Overcast
12:53 AM 30.9 °F 24.3 °F 24.1 °F 76% 29.89 in 10.0 mi West 6.9 mph - N/A   Mostly Cloudy
1:30 AM 30.2 °F 21.3 °F 21.2 °F 69% 29.87 in 10.0 mi WNW 10.4 mph 16.1 mph N/A   Overcast
1:53 AM 28.9 °F 21.9 °F 21.0 °F 72% 29.92 in 10.0 mi Variable 6.9 mph - N/A   Overcast
2:10 AM 28.4 °F 21.2 °F 21.2 °F 74% 29.89 in 10.0 mi West 6.9 mph - N/A   Overcast
2:53 AM 27.0 °F 18.0 °F 19.0 °F 72% 29.93 in 9.0 mi WNW 9.2 mph - N/A   Overcast
3:01 AM 26.6 °F 18.2 °F 19.4 °F 74% 29.90 in 9.0 mi WNW 8.1 mph - N/A   Overcast
3:37 AM 24.8 °F 14.6 °F 17.6 °F 74% 29.91 in 9.0 mi WNW 10.4 mph 18.4 mph N/A   Mostly Cloudy
3:53 AM 24.1 °F 15.2 °F 17.1 °F 75% 29.96 in 9.0 mi WNW 8.1 mph - N/A   Scattered Clouds
4:53 AM 21.9 °F 11.0 °F 15.1 °F 75% 29.98 in 7.0 mi NW 10.4 mph - N/A   Mostly Cloudy
5:53 AM 21.9 °F 14.5 °F 15.1 °F 75% 30.00 in 7.0 mi WNW 5.8 mph - N/A   Overcast
6:36 AM 21.2 °F 11.7 °F 15.8 °F 80% 29.98 in 7.0 mi WNW 8.1 mph - N/A   Overcast
6:53 AM 21.9 °F 13.4 °F 16.0 °F 78% 30.02 in 7.0 mi WNW 6.9 mph - 0.00 in Snow Light Snow
7:53 AM 23.0 °F 15.8 °F 17.1 °F 78% 30.06 in 6.0 mi WNW 5.8 mph - 0.00 in   Haze
8:53 AM 24.1 °F 13.1 °F 18.0 °F 77% 30.09 in 6.0 mi NW 11.5 mph - N/A   Haze
9:36 AM 24.8 °F 15.3 °F 19.4 °F 80% 30.08 in 7.0 mi NW 9.2 mph - N/A   Overcast
9:53 AM 25.0 °F 15.5 °F 19.0 °F 78% 30.13 in 7.0 mi NW 9.2 mph 17.3 mph N/A   Overcast
10:21 AM 26.6 °F 15.7 °F 19.4 °F 74% 30.10 in 8.0 mi NW 12.7 mph - N/A   Mostly Cloudy
10:53 AM 26.1 °F 16.2 °F 19.0 °F 75% 30.15 in 8.0 mi WNW 10.4 mph 17.3 mph N/A   Overcast
11:35 AM 26.6 °F 15.2 °F 19.4 °F 74% 30.12 in 9.0 mi NW 13.8 mph - N/A   Mostly Cloudy
11:53 AM 27.0 °F 19.5 °F 19.9 °F 75% 30.16 in 10.0 mi NW 6.9 mph 16.1 mph N/A   Mostly Cloudy
12:53 PM 27.0 °F 20.5 °F 19.9 °F 75% 30.16 in 9.0 mi WNW 5.8 mph - N/A   Scattered Clouds
1:53 PM 28.9 °F 21.9 °F 19.9 °F 69% 30.18 in 10.0 mi WNW 6.9 mph - N/A   Partly Cloudy
2:53 PM 28.0 °F 20.0 °F 19.0 °F 69% 30.21 in 10.0 mi West 8.1 mph - N/A   Clear
3:53 PM 27.0 °F 20.5 °F 19.0 °F 72% 30.25 in 8.0 mi Variable 5.8 mph - N/A   Clear
4:53 PM 25.0 °F - 18.0 °F 75% 30.26 in 7.0 mi Calm Calm - N/A   Clear
5:53 PM 23.0 °F - 16.0 °F 74% 30.28 in 8.0 mi Calm Calm - N/A   Clear
6:53 PM 19.9 °F - 15.1 °F 81% 30.29 in 8.0 mi Calm Calm - N/A   Clear
7:53 PM 21.0 °F 16.2 °F 17.1 °F 85% 30.29 in 7.0 mi SW 3.5 mph - N/A   Clear
8:53 PM 21.0 °F - 15.1 °F 78% 30.29 in 9.0 mi Calm Calm - N/A   Clear
9:53 PM 19.0 °F 12.3 °F 14.0 °F 81% 30.30 in 8.0 mi South 4.6 mph - N/A   Clear
10:53 PM 19.0 °F 12.3 °F 12.0 °F 74% 30.30 in 10.0 mi SSW 4.6 mph - N/A   Clear
11:53 PM 17.1 °F 10.0 °F 12.0 °F 81% 30.30 in 10.0 mi South 4.6 mph - N/A   Clear